Notices

What's New in latest Release from April 7th, 2021:

- Updated Glossary, including Speed of Maximum Gust, and Total Hourly Precipitation

- Updated national and regional climate services offices contacts and prices information

- Addition of station inventory lists for 1981-2010, 1971-2000, and 1961-1990 Normals.

If you haven't already, please take our survey and provide feedback about our website: https://eccc.sondage-survey.ca/f/LanguageSelection.aspx?s=442ca660-fcf1-47c0-95a9-59707d6fd709

Hourly Data Report for January 09, 2021

EDMUNDSTON
NEW BRUNSWICK
Current Station Operator: ECCC - MSC

47°25'00.000" N
68°19'28.040" W
154.20 m
8101303
71590
ERM

Download Data

Hourly Data (January 2021)
Hourly Data Report for January 9, 2021
TIME
LST
Temp Definition
°C
Dew Point Definition
°C
Rel Hum Definition
%
Precip. Amount Definition
mm

Wind Dir Definition
10's deg

Wind Spd Definition
km/h
Visibility Definition
km
Stn Press Definition
kPa
Hmdx Definition


Wind Chill Definition


Weather Definition


00:00 -5.5 LegendMM LegendMM 0.5 31 9   98.97   -10 LegendNANA
01:00 -5.2 LegendMM LegendMM 0.0 31 10   98.93   -10 LegendNANA
02:00 -5.0 LegendMM LegendMM 0.0 31 11   98.94   -10 LegendNANA
03:00 -4.9 LegendMM LegendMM 0.0 31 10   98.97   -9 LegendNANA
04:00 -4.9 LegendMM LegendMM 0.0 32 10   98.99   -9 LegendNANA
05:00 -4.9 LegendMM LegendMM 0.0 31 9   98.98   -9 LegendNANA
06:00 -4.9 LegendMM LegendMM 0.0 31 8   99.00   -8 LegendNANA
07:00 -4.9 LegendMM LegendMM 0.0 29 7   99.04   -8 LegendNANA
08:00 -5.1 LegendMM LegendMM 0.0 31 9   99.10   -9 LegendNANA
09:00 -5.0 LegendMM LegendMM 0.0 32 8   99.17   -9 LegendNANA
10:00 -3.6 LegendMM LegendMM 0.0 32 14   99.20   -9 LegendNANA
11:00 -3.2 LegendMM LegendMM 0.0 31 12   99.21   -8 LegendNANA
12:00 -2.4 LegendMM LegendMM 0.0 31 14   99.18   -7 LegendNANA
13:00 -1.8 LegendMM LegendMM 0.0 30 10   99.16   -5 LegendNANA
14:00 -1.5 LegendMM LegendMM 0.0 32 13   99.13   -6 LegendNANA
15:00 -1.5 LegendMM LegendMM 0.0 31 12   99.16   -6 LegendNANA
16:00 -2.4 LegendMM LegendMM 0.0 29 9   99.22   -6 LegendNANA
17:00 -2.3 LegendMM LegendMM 0.0 31 14   99.29   -7 LegendNANA
18:00 -2.7 LegendMM LegendMM 0.0 32 12   99.36   -7 LegendNANA
19:00 -2.7 LegendMM LegendMM 0.0 31 12   99.41   -7 LegendNANA
20:00 -2.8 LegendMM LegendMM 0.0 30 8   99.44   -6 LegendNANA
21:00 -3.5 LegendMM LegendMM 0.0 31 12   99.48   -8 LegendNANA
22:00 -4.5 LegendMM LegendMM 0.0 30 12   99.47   -9 LegendNANA
23:00 -5.0 LegendMM LegendMM 0.0 30 10   99.48   -9 LegendNANA

Notes on Data Quality.

Legend

  • E = Estimated
  • M = Missing
  • NA = Not Available*
  • [empty] = Indicates an unobserved value
Date modified: